When you browse on this site, cookies collect data to enhance your experience and personalize the content and advertising you see.
Visit our Privacy Policy to learn more. By continuing to use the site, you agree to this use of cookies and data.
  • In Spain
  • List of Countries
  • For 7 days
  • Water Temperature
  • Satellite Maps
  • Weather Map
  • Weather Widgets
  • user-avatar
    Login

    Hourly Weather Djaipur

    Today, 17 July, Wednesday

    Time Temperature Precipitation Wind Pressure Humidity
    00:00 +32°C° 0.2 mm 2 mps 718 mmHg 53%
    01:00 +32°C° 0.2 mm 2 mps 717 mmHg 54%
    02:00 +33°C° 0.2 mm 3 mps 717 mmHg 56%
    03:00 +33°C° 0 mm 3 mps 717 mmHg 57%
    04:00 +31°C° 0 mm 3 mps 717 mmHg 59%
    05:00 +31°C° 0 mm 2 mps 718 mmHg 59%
    06:00 +33°C° 0 mm 3 mps 718 mmHg 57%
    07:00 +34°C° 0 mm 4 mps 718 mmHg 55%
    08:00 +35°C° 0 mm 6 mps 718 mmHg 53%
    09:00 +36°C° 0 mm 5 mps 718 mmHg 50%
    10:00 +37°C° 0 mm 5 mps 718 mmHg 47%
    11:00 +39°C° 0 mm 5 mps 719 mmHg 44%
    12:00 +39°C° 0.2 mm 5 mps 718 mmHg 44%
    13:00 +39°C° 0.2 mm 5 mps 717 mmHg 44%
    14:00 +39°C° 0.2 mm 5 mps 717 mmHg 44%
    15:00 +37°C° 1 mm 3 mps 717 mmHg 47%
    16:00 +36°C° 1 mm 2 mps 716 mmHg 51%
    17:00 +33°C° 1 mm 1 mps 716 mmHg 54%
    18:00 +33°C° 0.3 mm 1 mps 716 mmHg 55%
    19:00 +33°C° 0.3 mm 1 mps 717 mmHg 56%
    20:00 +33°C° 0.3 mm 1 mps 717 mmHg 56%
    21:00 +33°C° 0.8 mm 1 mps 717 mmHg 58%
    22:00 +32°C° 0.8 mm 1 mps 717 mmHg 61%
    23:00 +32°C° 0.8 mm 1 mps 717 mmHg 63%

    Tomorrow, 18 July, Thursday

    Time Temperature Precipitation Wind Pressure Humidity
    00:00 +32°C° 0.4 mm 1 mps 717 mmHg 63%
    01:00 +31°C° 0.4 mm 2 mps 717 mmHg 62%
    02:00 +31°C° 0.4 mm 3 mps 717 mmHg 62%
    03:00 +31°C° 0.6 mm 3 mps 717 mmHg 63%
    04:00 +31°C° 0.6 mm 3 mps 717 mmHg 64%
    05:00 +30°C° 0.6 mm 4 mps 717 mmHg 65%
    06:00 +32°C° 0.1 mm 4 mps 717 mmHg 63%
    07:00 +32°C° 0.1 mm 4 mps 718 mmHg 62%
    08:00 +33°C° 0.1 mm 5 mps 718 mmHg 60%
    09:00 +34°C° 0 mm 4 mps 718 mmHg 55%
    10:00 +36°C° 0 mm 4 mps 718 mmHg 50%
    11:00 +37°C° 0 mm 3 mps 718 mmHg 45%
    12:00 +38°C° 0 mm 3 mps 718 mmHg 44%
    13:00 +38°C° 0 mm 3 mps 717 mmHg 42%
    14:00 +38°C° 0 mm 3 mps 717 mmHg 40%
    15:00 +38°C° 0.4 mm 3 mps 716 mmHg 44%
    16:00 +37°C° 0.4 mm 4 mps 716 mmHg 48%
    17:00 +36°C° 0.4 mm 4 mps 715 mmHg 51%
    18:00 +35°C° 1.4 mm 4 mps 716 mmHg 55%
    19:00 +34°C° 1.4 mm 4 mps 716 mmHg 59%
    20:00 +32°C° 1.4 mm 4 mps 716 mmHg 64%
    21:00 +33°C° 0.6 mm 3 mps 716 mmHg 62%
    22:00 +32°C° 0.6 mm 2 mps 717 mmHg 60%
    23:00 +33°C° 0.6 mm 1 mps 717 mmHg 59%

    Day after tomorrow, 19 July, Friday

    Time Temperature Precipitation Wind Pressure Humidity
    00:00 +32°C° 0.4 mm 1 mps 717 mmHg 61%
    01:00 +32°C° 0.4 mm 2 mps 716 mmHg 62%
    02:00 +31°C° 0.4 mm 2 mps 716 mmHg 64%
    03:00 +31°C° 0.4 mm 2 mps 716 mmHg 64%
    04:00 +31°C° 0.4 mm 2 mps 717 mmHg 63%
    05:00 +31°C° 0.4 mm 3 mps 717 mmHg 62%
    06:00 +33°C° 0.2 mm 3 mps 717 mmHg 59%
    07:00 +33°C° 0.2 mm 4 mps 718 mmHg 56%
    08:00 +34°C° 0.2 mm 5 mps 718 mmHg 53%
    09:00 +35°C° 0 mm 5 mps 718 mmHg 49%
    10:00 +37°C° 0 mm 4 mps 718 mmHg 45%
    11:00 +38°C° 0 mm 4 mps 718 mmHg 41%
    12:00 +39°C° 0 mm 3 mps 718 mmHg 39%
    13:00 +39°C° 0 mm 2 mps 717 mmHg 36%
    14:00 +40°C° 0 mm 1 mps 717 mmHg 34%
    15:00 +40°C° 0 mm 2 mps 717 mmHg 35%
    16:00 +39°C° 0 mm 2 mps 716 mmHg 36%
    17:00 +39°C° 0 mm 2 mps 716 mmHg 37%
    18:00 +38°C° 0 mm 2 mps 716 mmHg 40%
    19:00 +38°C° 0 mm 2 mps 717 mmHg 43%
    20:00 +36°C° 0 mm 1 mps 717 mmHg 45%
    21:00 +36°C° 0 mm 1 mps 717 mmHg 46%
    22:00 +36°C° 0 mm 1 mps 717 mmHg 46%
    23:00 +35°C° 0 mm 1 mps 717 mmHg 47%

    20 July, Saturday

    Time Temperature Precipitation Wind Pressure Humidity
    00:00 +35°C° 0 mm 1 mps 717 mmHg 47%
    01:00 +35°C° 0 mm 1 mps 717 mmHg 48%
    02:00 +35°C° 0 mm 1 mps 716 mmHg 48%
    03:00 +34°C° 0 mm 1 mps 716 mmHg 49%
    04:00 +34°C° 0 mm 1 mps 716 mmHg 50%
    05:00 +34°C° 0 mm 1 mps 717 mmHg 52%
    06:00 +35°C° 0 mm 2 mps 717 mmHg 48%
    07:00 +36°C° 0 mm 4 mps 718 mmHg 45%
    08:00 +37°C° 0 mm 5 mps 718 mmHg 42%
    09:00 +39°C° 0 mm 5 mps 718 mmHg 39%
    10:00 +40°C° 0 mm 5 mps 718 mmHg 36%
    11:00 +42°C° 0 mm 5 mps 719 mmHg 33%
    12:00 +42°C° 0 mm 4 mps 718 mmHg 32%
    13:00 +42°C° 0 mm 4 mps 717 mmHg 31%
    14:00 +42°C° 0 mm 4 mps 717 mmHg 31%
    15:00 +42°C° 0 mm 3 mps 717 mmHg 31%
    16:00 +42°C° 0 mm 3 mps 716 mmHg 31%
    17:00 +42°C° 0 mm 3 mps 716 mmHg 31%
    18:00 +40°C° 0 mm 3 mps 716 mmHg 33%
    19:00 +40°C° 0 mm 2 mps 716 mmHg 35%
    20:00 +39°C° 0 mm 2 mps 716 mmHg 37%
    21:00 +38°C° 0 mm 2 mps 716 mmHg 38%
    22:00 +38°C° 0 mm 2 mps 716 mmHg 40%
    23:00 +37°C° 0 mm 2 mps 716 mmHg 41%

    21 July, Sunday

    Time Temperature Precipitation Wind Pressure Humidity
    00:00 +37°C° 0 mm 2 mps 716 mmHg 41%
    01:00 +37°C° 0 mm 2 mps 716 mmHg 42%
    02:00 +36°C° 0 mm 1 mps 715 mmHg 42%
    03:00 +36°C° 0 mm 2 mps 715 mmHg 42%
    04:00 +36°C° 0 mm 3 mps 715 mmHg 41%
    05:00 +36°C° 0 mm 3 mps 715 mmHg 40%
    06:00 +36°C° 0 mm 4 mps 716 mmHg 41%
    07:00 +36°C° 0 mm 5 mps 716 mmHg 41%
    08:00 +36°C° 0 mm 6 mps 716 mmHg 41%
    09:00 +39°C° 0 mm 6 mps 717 mmHg 37%
    10:00 +40°C° 0 mm 5 mps 717 mmHg 34%
    11:00 +41°C° 0 mm 5 mps 717 mmHg 31%
    12:00 +42°C° 0 mm 4 mps 716 mmHg 30%
    13:00 +43°C° 0 mm 4 mps 716 mmHg 28%
    14:00 +43°C° 0 mm 3 mps 715 mmHg 27%
    15:00 +44°C° 0 mm 3 mps 715 mmHg 26%
    16:00 +44°C° 0 mm 3 mps 715 mmHg 26%
    17:00 +43°C° 0 mm 2 mps 714 mmHg 26%
    18:00 +42°C° 0 mm 2 mps 715 mmHg 28%
    19:00 +41°C° 0 mm 2 mps 715 mmHg 31%
    20:00 +40°C° 0 mm 2 mps 715 mmHg 33%
    21:00 +40°C° 0 mm 2 mps 715 mmHg 33%
    22:00 +39°C° 0 mm 2 mps 715 mmHg 34%
    23:00 +39°C° 0 mm 2 mps 715 mmHg 34%

    22 July, Monday

    Time Temperature Precipitation Wind Pressure Humidity
    00:00 +39°C° 0 mm 3 mps 715 mmHg 35%
    01:00 +38°C° 0 mm 3 mps 715 mmHg 36%
    02:00 +38°C° 0 mm 4 mps 714 mmHg 37%
    03:00 +37°C° 0 mm 5 mps 715 mmHg 40%
    04:00 +36°C° 0 mm 5 mps 715 mmHg 42%
    05:00 +35°C° 0 mm 5 mps 715 mmHg 44%
    06:00 +35°C° 0 mm 6 mps 715 mmHg 43%
    07:00 +36°C° 0 mm 6 mps 716 mmHg 42%
    08:00 +36°C° 0 mm 7 mps 716 mmHg 41%
    09:00 +39°C° 0 mm 7 mps 716 mmHg 38%
    10:00 +40°C° 0 mm 6 mps 716 mmHg 35%
    11:00 +42°C° 0 mm 6 mps 716 mmHg 32%
    12:00 +43°C° 0 mm 5 mps 716 mmHg 30%
    13:00 +45°C° 0 mm 5 mps 715 mmHg 28%
    14:00 +45°C° 0 mm 5 mps 714 mmHg 26%
    15:00 +45°C° 0 mm 5 mps 714 mmHg 27%
    16:00 +45°C° 0 mm 5 mps 714 mmHg 28%
    17:00 +43°C° 0 mm 5 mps 713 mmHg 28%
    18:00 +42°C° 0 mm 5 mps 713 mmHg 30%
    19:00 +42°C° 0 mm 5 mps 714 mmHg 31%
    20:00 +41°C° 0 mm 5 mps 714 mmHg 32%
    21:00 +40°C° 0 mm 5 mps 714 mmHg 34%
    22:00 +40°C° 0 mm 5 mps 714 mmHg 35%
    23:00 +39°C° 0 mm 5 mps 714 mmHg 36%
    Show more